Flag for Brazil Weather past 2 weeks in Manaus, Amazonas, Brazil

Now
79 °F

Sunny.


Feels Like: 81 °F
Forecast: 76 / 92 °F
Wind: 2 mph from North

Location: Manaus Aeroporto

Current Time: Sep 5, 2015 at 6:52:21 AM

Latest Report: Sep 5, 2015 at 6:00 AM


Visibility: 10 mi

Pressure: 29.89 "Hg

Humidity: 74%

Dew point: 70 °F

Location of ManausLocation

Historic Weather in Manaus — Graph

°F

Manaus temperature yesterday

Maximum temperature yesterday: 93 °F (at 3:00 PM)
Minimum temperature yesterday: 79 °F (at 2:00 AM)
Average temperature yesterday: 83 °F

Past Weeks' High & Low Weather Summary

 TemperatureHumidityPressure
High95 °F (Aug 23, 2:00 PM)94% (Aug 31, 12:00 AM)29.98 "Hg (Aug 31, 12:00 AM)
Low73 °F (Aug 29, 7:00 AM)44% (Aug 24, 2:00 PM)29.71 "Hg (Aug 25, 5:00 PM)
Average85 °F68%29.87 "Hg
* Reported Aug 21 6:00 AM — Sep 5 6:00 AM, Manaus, Weather by CustomWeather, © 2015

Note: Actual official high and low records may vary slightly from our data, if they occured in-between our weather recording intervals... More about our weather records

Advertising

Manaus weather history for previous 24 hours

 ConditionsComfort  
Time TempWeatherWind HumidityBarometerVisibility
6:00 AM
Sat, Sep 5
79 °FSunny.2 mph74%29.89 "Hg10 mi
5:00 AM79 °FClear.7 mph74%29.89 "Hg10 mi
4:00 AM79 °FClear.7 mph74%29.89 "Hg10 mi
3:00 AM81 °FClear.10 mph70%29.89 "Hg10 mi
2:00 AM81 °FClear.6 mph70%29.89 "Hg10 mi
1:00 AM81 °FClear.3 mph74%29.89 "Hg10 mi
12:00 AM81 °FClear.3 mph74%29.92 "Hg10 mi
11:00 PM
Fri, Sep 4
81 °FClear.6 mph74%29.92 "Hg10 mi
10:00 PM82 °FClear.3 mph70%29.92 "Hg10 mi
9:00 PM82 °FClear.5 mph66%29.89 "Hg10 mi
8:00 PM82 °FClear.7 mph66%29.86 "Hg10 mi
7:00 PM82 °FClear.3 mph66%29.83 "Hg10 mi
6:00 PM82 °FClear.5 mph66%29.83 "Hg10 mi
5:00 PM84 °FPartly sunny.7 mph66%29.83 "HgN/A
4:00 PM86 °FThunderstorms. Scattered clouds.14 mph66%29.83 "HgN/A
3:00 PM93 °FPassing clouds.8 mph49%29.83 "HgN/A
2:00 PM91 °FPassing clouds.5 mph56%29.83 "HgN/A
1:00 PM91 °FPassing clouds.6 mph56%29.89 "HgN/A
12:00 PM88 °FScattered clouds.5 mph66%29.92 "HgN/A
11:00 AM86 °FScattered clouds.7 mph66%29.95 "HgN/A
10:00 AM86 °FScattered clouds.8 mph70%29.98 "HgN/A
9:00 AM82 °FScattered clouds.5 mph84%29.95 "HgN/A
8:00 AM82 °FPassing clouds.6 mph79%29.95 "HgN/A
7:00 AM82 °FSunny.No wind74%29.92 "Hg10 mi
6:00 AM79 °FSunny.No wind84%29.89 "Hg10 mi
Weather by CustomWeather, © 2015

See weather overviewHow to use our weather pages